BLY550 LFMT-EGGP

Flight info

Callsign BLY550
Flight time N/A
Altitude 38000
Route BRUSC DCT NEKTA DCT PIMQO DCT TUPAR UN861 DIKRO UM184 HEMEL T420 ELVOS
Aircraft B38M/M-SDE1FGHILORVWXY/HB1

Departure

Time 2026-04-22 15:28
Airport Montpellier-Méditerranée Airport (LFMT)

Arrival

Time N/A
Airport Liverpool John Lennon Airport (EGGP)
Time Latitude Longitude Altitude Speed Heading
2026-04-22 15:00 43.57914 3.96058 20 ft 0 kts 294°
2026-04-22 15:19 43.57909 3.96072 21 ft 3 kts 296°
2026-04-22 15:19 43.57901 3.96095 20 ft 3 kts 302°
2026-04-22 15:20 43.57895 3.96106 20 ft 3 kts 337°
2026-04-22 15:20 43.57874 3.96103 20 ft 2 kts 31°
2026-04-22 15:20 43.57872 3.96102 20 ft 2 kts 34°
2026-04-22 15:20 43.57887 3.96116 21 ft 3 kts 34°
2026-04-22 15:21 43.57904 3.96132 20 ft 3 kts 34°
2026-04-22 15:21 43.57920 3.96148 20 ft 3 kts 34°
2026-04-22 15:21 43.57928 3.96156 20 ft 0 kts 34°
2026-04-22 15:23 43.57933 3.96159 20 ft 2 kts 34°
2026-04-22 15:24 43.57957 3.96182 21 ft 7 kts 34°
2026-04-22 15:24 43.58014 3.96238 20 ft 12 kts 36°
2026-04-22 15:24 43.58026 3.96330 20 ft 12 kts 124°
2026-04-22 15:24 43.57975 3.96433 20 ft 14 kts 124°
2026-04-22 15:25 43.57913 3.96556 20 ft 17 kts 124°
2026-04-22 15:25 43.57841 3.96700 20 ft 19 kts 124°
2026-04-22 15:25 43.57759 3.96863 20 ft 22 kts 124°
2026-04-22 15:25 43.57668 3.97042 20 ft 24 kts 124°
2026-04-22 15:26 43.57570 3.97240 21 ft 26 kts 124°
2026-04-22 15:26 43.57463 3.97452 20 ft 28 kts 125°
2026-04-22 15:26 43.57365 3.97648 21 ft 21 kts 124°
2026-04-22 15:26 43.57278 3.97815 20 ft 21 kts 125°
2026-04-22 15:27 43.57206 3.97962 20 ft 11 kts 125°
2026-04-22 15:27 43.57177 3.98049 20 ft 11 kts 99°
2026-04-22 15:27 43.57218 3.98146 20 ft 13 kts 36°
2026-04-22 15:27 43.57306 3.98153 21 ft 14 kts 322°
2026-04-22 15:28 43.57412 3.97951 20 ft 59 kts 304°
2026-04-22 15:28 43.57831 3.97122 20 ft 149 kts 305°
2026-04-22 15:28 43.58527 3.95771 487 ft 188 kts 307°
2026-04-22 15:28 43.59305 3.94282 1630 ft 193 kts 305°
2026-04-22 15:29 43.60411 3.93097 2419 ft 217 kts 345°
2026-04-22 15:29 43.61972 3.92886 3144 ft 236 kts 356°
2026-04-22 15:29 43.63607 3.92153 3814 ft 257 kts 335°
2026-04-22 15:30 43.66261 3.90439 5997 ft 247 kts 335°
2026-04-22 15:30 43.68398 3.89018 7360 ft 264 kts 327°
2026-04-22 15:30 43.69662 3.87229 8544 ft 262 kts 301°
2026-04-22 15:30 43.70251 3.84845 9758 ft 266 kts 279°
2026-04-22 15:31 43.70423 3.82281 10766 ft 274 kts 277°
2026-04-22 15:31 43.70589 3.79569 11359 ft 294 kts 277°
2026-04-22 15:31 43.70768 3.76659 11907 ft 313 kts 276°
2026-04-22 15:31 43.70955 3.73599 12582 ft 326 kts 276°
2026-04-22 15:32 43.71143 3.70500 13482 ft 329 kts 276°
2026-04-22 15:32 43.71337 3.67318 14334 ft 334 kts 276°
2026-04-22 15:32 43.71533 3.64100 15107 ft 338 kts 276°
2026-04-22 15:32 43.71730 3.60833 15863 ft 344 kts 276°
2026-04-22 15:33 43.71929 3.57519 16598 ft 349 kts 276°
2026-04-22 15:33 43.72129 3.54153 17348 ft 353 kts 276°
2026-04-22 15:33 43.72331 3.50747 18054 ft 358 kts 276°
2026-04-22 15:33 43.72535 3.47289 18701 ft 363 kts 276°
2026-04-22 15:34 43.72740 3.43795 19336 ft 367 kts 276°
2026-04-22 15:34 43.72947 3.40260 19997 ft 370 kts 276°
2026-04-22 15:34 43.73153 3.36701 20624 ft 373 kts 276°
2026-04-22 15:34 43.73291 3.34325 21022 ft 376 kts 276°
2026-04-22 15:35 43.73499 3.30709 21648 ft 379 kts 276°
2026-04-22 15:35 43.73708 3.27063 22257 ft 382 kts 276°
2026-04-22 15:35 43.73918 3.23382 22867 ft 386 kts 276°
2026-04-22 15:35 43.74197 3.18438 23624 ft 391 kts 276°
2026-04-22 15:36 43.74338 3.15945 23950 ft 393 kts 276°
2026-04-22 15:36 43.74551 3.12117 24469 ft 395 kts 276°
2026-04-22 15:36 43.74761 3.08360 24959 ft 398 kts 276°
2026-04-22 15:36 43.75300 3.04616 25413 ft 398 kts 291°
2026-04-22 15:37 43.76624 3.01259 25871 ft 400 kts 307°
2026-04-22 15:37 43.78538 2.98442 26318 ft 404 kts 315°
2026-04-22 15:37 43.80570 2.95739 26778 ft 407 kts 315°
2026-04-22 15:37 43.82641 2.93052 27257 ft 409 kts 316°
2026-04-22 15:38 43.84739 2.90362 27702 ft 412 kts 316°
2026-04-22 15:38 43.88987 2.84970 28587 ft 416 kts 317°
2026-04-22 15:38 43.91140 2.82243 29028 ft 419 kts 317°
2026-04-22 15:39 43.93297 2.79510 29431 ft 422 kts 317°
2026-04-22 15:39 43.95469 2.76754 29859 ft 424 kts 317°
2026-04-22 15:39 43.97622 2.74021 30216 ft 426 kts 317°
2026-04-22 15:39 43.99818 2.71228 30568 ft 429 kts 317°
2026-04-22 15:40 44.02020 2.68427 30926 ft 430 kts 317°
2026-04-22 15:40 44.04223 2.65620 31337 ft 429 kts 316°
2026-04-22 15:40 44.06422 2.62816 31758 ft 429 kts 316°
2026-04-22 15:40 44.08621 2.60010 32245 ft 427 kts 316°
2026-04-22 15:41 44.10811 2.57212 32737 ft 426 kts 316°
2026-04-22 15:41 44.12984 2.54433 33228 ft 424 kts 316°
2026-04-22 15:41 44.15151 2.51657 33732 ft 422 kts 316°
2026-04-22 15:41 44.17305 2.48896 34209 ft 420 kts 316°
2026-04-22 15:42 44.19453 2.46140 34612 ft 419 kts 316°
2026-04-22 15:42 44.21597 2.43387 34992 ft 418 kts 316°
2026-04-22 15:42 44.23729 2.40645 35368 ft 417 kts 316°
2026-04-22 15:42 44.25865 2.37896 35719 ft 417 kts 316°
2026-04-22 15:43 44.27997 2.35149 36058 ft 417 kts 316°
2026-04-22 15:43 44.30128 2.32401 36370 ft 417 kts 316°
2026-04-22 15:43 44.32257 2.29651 36692 ft 417 kts 316°
2026-04-22 15:43 44.34383 2.26904 36976 ft 417 kts 316°
2026-04-22 15:44 44.36510 2.24153 37293 ft 416 kts 316°
2026-04-22 15:44 44.38632 2.21403 37614 ft 416 kts 316°
2026-04-22 15:44 44.40751 2.18657 37921 ft 415 kts 316°
2026-04-22 15:44 44.42873 2.15903 38070 ft 417 kts 316°
2026-04-22 15:45 44.47109 2.10397 38040 ft 414 kts 316°
2026-04-22 15:45 44.51331 2.04897 38034 ft 414 kts 316°
2026-04-22 15:46 44.55550 1.99390 38030 ft 414 kts 316°
2026-04-22 15:46 44.59766 1.93876 38017 ft 414 kts 316°
2026-04-22 15:47 44.63946 1.88398 38009 ft 412 kts 316°
2026-04-22 15:47 44.68131 1.82900 38006 ft 412 kts 316°
2026-04-22 15:48 44.72315 1.77393 38005 ft 412 kts 316°
2026-04-22 15:48 44.76499 1.71875 38006 ft 412 kts 316°
2026-04-22 15:49 44.80679 1.66351 37996 ft 412 kts 316°
2026-04-22 15:49 44.84856 1.60820 37993 ft 412 kts 316°
2026-04-22 15:50 44.89032 1.55276 37989 ft 412 kts 316°
2026-04-22 15:50 44.93208 1.49724 37986 ft 413 kts 316°
2026-04-22 15:51 44.97389 1.44152 37992 ft 413 kts 316°
2026-04-22 15:51 45.01541 1.38607 37996 ft 413 kts 316°
2026-04-22 15:52 45.05712 1.33026 37993 ft 413 kts 316°
2026-04-22 15:52 45.09882 1.27438 37993 ft 413 kts 316°
2026-04-22 15:53 45.14053 1.21834 37985 ft 413 kts 316°
2026-04-22 15:53 45.18143 1.16113 37987 ft 413 kts 314°
2026-04-22 15:54 45.22207 1.10351 37986 ft 413 kts 314°
2026-04-22 15:54 45.26276 1.04583 37983 ft 413 kts 314°
2026-04-22 15:55 45.30341 0.98808 37993 ft 413 kts 314°
2026-04-22 15:55 45.34399 0.93030 37970 ft 413 kts 314°
2026-04-22 15:56 45.38458 0.87239 37978 ft 413 kts 314°
2026-04-22 15:56 45.42484 0.81483 37972 ft 412 kts 314°
2026-04-22 15:57 45.46525 0.75691 37968 ft 412 kts 314°
2026-04-22 15:57 45.50555 0.69904 37979 ft 411 kts 314°
2026-04-22 15:58 45.54587 0.64102 37992 ft 411 kts 314°
2026-04-22 15:58 45.58613 0.58295 37998 ft 411 kts 314°
2026-04-22 15:59 45.62609 0.52520 37989 ft 411 kts 314°
2026-04-22 15:59 45.66625 0.46703 37988 ft 411 kts 314°
2026-04-22 16:00 45.70643 0.40869 37994 ft 411 kts 314°
2026-04-22 16:00 45.74652 0.35038 37990 ft 410 kts 314°
2026-04-22 16:01 45.78648 0.29210 37993 ft 410 kts 313°
2026-04-22 16:01 45.82645 0.23371 37992 ft 410 kts 313°
2026-04-22 16:02 45.86609 0.17566 37996 ft 410 kts 313°
2026-04-22 16:02 45.90601 0.11708 37992 ft 410 kts 313°
2026-04-22 16:03 45.94591 0.05841 37999 ft 410 kts 313°
2026-04-22 16:03 45.98582 -0.00042 38011 ft 410 kts 313°
2026-04-22 16:04 46.02566 -0.05929 38003 ft 411 kts 313°
2026-04-22 16:04 46.06555 -0.11833 38002 ft 411 kts 313°
2026-04-22 16:05 46.10539 -0.17745 38007 ft 411 kts 313°
2026-04-22 16:05 46.14519 -0.23663 38004 ft 411 kts 313°
2026-04-22 16:06 46.18500 -0.29595 38022 ft 411 kts 313°
2026-04-22 16:06 46.22480 -0.35540 38012 ft 411 kts 313°
2026-04-22 16:07 46.26453 -0.41488 38018 ft 411 kts 313°
2026-04-22 16:07 46.30428 -0.47451 38019 ft 411 kts 313°
2026-04-22 16:08 46.34370 -0.53375 38020 ft 411 kts 313°
2026-04-22 16:08 46.38340 -0.59353 38025 ft 412 kts 312°
2026-04-22 16:09 46.42631 -0.64797 38010 ft 414 kts 330°
2026-04-22 16:09 46.45353 -0.66243 38028 ft 421 kts 344°
2026-04-22 16:09 46.48256 -0.66944 38025 ft 424 kts 347°
2026-04-22 16:10 46.54122 -0.68106 38022 ft 426 kts 349°
2026-04-22 16:10 46.60013 -0.69139 38030 ft 427 kts 349°
2026-04-22 16:11 46.65914 -0.70138 38035 ft 427 kts 349°
2026-04-22 16:11 46.71815 -0.71134 38042 ft 427 kts 349°
2026-04-22 16:12 46.77730 -0.72135 38033 ft 427 kts 349°
2026-04-22 16:12 46.83597 -0.73130 38043 ft 427 kts 349°
2026-04-22 16:13 46.89500 -0.74132 38041 ft 427 kts 349°
2026-04-22 16:13 46.95404 -0.75138 38043 ft 427 kts 349°
2026-04-22 16:14 47.01314 -0.76146 38047 ft 428 kts 349°
2026-04-22 16:14 47.07230 -0.77158 38055 ft 428 kts 349°
2026-04-22 16:15 47.13143 -0.78172 38053 ft 428 kts 349°
2026-04-22 16:15 47.19058 -0.79188 38066 ft 428 kts 349°
2026-04-22 16:16 47.24989 -0.80209 38064 ft 429 kts 349°
2026-04-22 16:16 47.30923 -0.81233 38065 ft 429 kts 349°
2026-04-22 16:17 47.36850 -0.82259 38069 ft 429 kts 349°
2026-04-22 16:17 47.42788 -0.83288 38064 ft 429 kts 349°
2026-04-22 16:18 47.48736 -0.84321 38083 ft 431 kts 349°
2026-04-22 16:18 47.54713 -0.85251 38081 ft 432 kts 351°
2026-04-22 16:19 47.60712 -0.85957 38091 ft 432 kts 351°
2026-04-22 16:19 47.66676 -0.86685 38089 ft 433 kts 351°
2026-04-22 16:20 47.72691 -0.87422 38089 ft 433 kts 351°
2026-04-22 16:20 47.78698 -0.88161 38088 ft 433 kts 351°
2026-04-22 16:21 47.84714 -0.88902 38110 ft 433 kts 351°
2026-04-22 16:21 47.90721 -0.89643 38123 ft 434 kts 351°
2026-04-22 16:22 47.99736 -0.90760 38128 ft 433 kts 351°
2026-04-22 16:23 48.07739 -0.91754 38127 ft 433 kts 351°
2026-04-22 16:23 48.13744 -0.92502 38124 ft 433 kts 351°
2026-04-22 16:24 48.22755 -0.93628 38129 ft 433 kts 351°
2026-04-22 16:25 48.28777 -0.94383 38120 ft 435 kts 351°
2026-04-22 16:25 48.37818 -0.95519 38122 ft 435 kts 351°
2026-04-22 16:26 48.43845 -0.96279 38139 ft 435 kts 352°
2026-04-22 16:26 48.49881 -0.97042 38132 ft 436 kts 352°
2026-04-22 16:27 48.55924 -0.97808 38134 ft 436 kts 352°
2026-04-22 16:27 48.61968 -0.98575 38137 ft 436 kts 352°
2026-04-22 16:28 48.67970 -0.99338 38145 ft 436 kts 352°
2026-04-22 16:28 48.74022 -1.00111 38147 ft 436 kts 352°
2026-04-22 16:29 48.80073 -1.00884 38145 ft 436 kts 352°
2026-04-22 16:29 48.86126 -1.01661 38160 ft 436 kts 352°
2026-04-22 16:30 48.92183 -1.02439 38162 ft 436 kts 352°
2026-04-22 16:30 48.98232 -1.03218 38164 ft 436 kts 352°
2026-04-22 16:31 49.04246 -1.03995 38165 ft 436 kts 352°
2026-04-22 16:31 49.10304 -1.04779 38169 ft 436 kts 352°
2026-04-22 16:32 49.16336 -1.05562 38166 ft 435 kts 352°
2026-04-22 16:32 49.22367 -1.06347 38170 ft 435 kts 352°
2026-04-22 16:33 49.28402 -1.07133 38176 ft 435 kts 352°
2026-04-22 16:33 49.34231 -1.07895 38184 ft 435 kts 352°
2026-04-22 16:34 49.40272 -1.08687 38185 ft 435 kts 352°
2026-04-22 16:34 49.46314 -1.09481 38196 ft 435 kts 352°
2026-04-22 16:35 49.52353 -1.10275 38215 ft 435 kts 352°
2026-04-22 16:35 49.58400 -1.11017 38197 ft 437 kts 357°
2026-04-22 16:36 49.64490 -1.10248 38183 ft 440 kts
2026-04-22 16:36 49.70593 -1.09425 38214 ft 440 kts
2026-04-22 16:37 49.76700 -1.08588 38218 ft 440 kts
2026-04-22 16:37 49.82794 -1.07752 38221 ft 440 kts
2026-04-22 16:38 49.88886 -1.06916 38227 ft 440 kts
2026-04-22 16:38 49.94941 -1.06082 38226 ft 440 kts
2026-04-22 16:39 50.01033 -1.05241 38236 ft 439 kts
2026-04-22 16:39 50.07117 -1.04397 38240 ft 439 kts
2026-04-22 16:40 50.13201 -1.03551 38241 ft 439 kts
2026-04-22 16:41 50.22334 -1.02276 38242 ft 439 kts
2026-04-22 16:41 50.28411 -1.01425 38249 ft 438 kts
2026-04-22 16:42 50.34498 -1.00571 38259 ft 439 kts
2026-04-22 16:42 50.40585 -0.99715 38256 ft 439 kts
2026-04-22 16:43 50.46670 -0.98858 38259 ft 439 kts
2026-04-22 16:43 50.52728 -0.98002 38262 ft 440 kts
2026-04-22 16:44 50.58861 -0.97134 38260 ft 440 kts
2026-04-22 16:44 50.64952 -0.96269 38270 ft 439 kts
2026-04-22 16:45 50.71041 -0.95402 38270 ft 440 kts
2026-04-22 16:45 50.73057 -0.95114 38270 ft 440 kts